Marshall, MI

8:35 AM EDT on May 28, 2017 (GMT -0400)
Brooks

Weather History for KRMY - November, 2012

Change the Weather History Date:

Wednesday, November 28, 2012

  Actual Average (KBTL) Record (KBTL)
Temperature  
Mean Temperature 32 °F -  
Max Temperature 40 °F 40 °F 64 °F (1998)
Min Temperature 24 °F 28 °F 17 °F (2007)
Degree Days  
Heating Degree Days 34    
Moisture  
Dew Point 19 °F    
Average Humidity 64    
Maximum Humidity 83    
Minimum Humidity 40    
Precipitation  
Precipitation 0.00 in - - ()
Sea Level Pressure  
Sea Level Pressure 30.26 in    
Wind  
Wind Speed 6 mph (WSW)    
Max Wind Speed 12 mph    
Max Gust Speed 23 mph    
Visibility 10 miles    
Events      
Averages and records for this station are not official NWS values.
T = Trace of Precipitation, MM = Missing Value Source: NWS Daily Summary

Daily Weather History Graph

Daily Weather History Graph

Search for Another Location

Airport or City:

Trip Planner

Search our weather history database for the weather conditions in past years. The results will help you decide how hot, cold, wet, or windy it might be!

Date:

Astronomy

Nov. 28, 2012 Rise Set
Actual Time 7:46 AM EST 5:09 PM EST
Civil Twilight 7:15 AM EST 5:40 PM EST
Nautical Twilight 6:40 AM EST 6:15 PM EST
Astronomical Twilight 6:06 AM EST 6:48 PM EST
Moon 5:23 PM EST 7:43 AM EST
Length of Visible Light 10h 25m
Length of Day
9h 23m
Full, 100% of the Moon is Illuminated
Nov 28
Full
Dec 6
Last Quarter
Dec 13
New
Dec 20
First Quarter
Dec 28
Full

Hourly Weather History & Observations

Time (EST) Temp. Windchill Dew Point Humidity Pressure Visibility Wind Dir Wind Speed Gust Speed Precip Events Conditions
12:14 AM 26.1 °F 20.5 °F 17.4 °F 70% 30.22 in 10.0 mi SW 4.6 mph - N/A   Scattered Clouds
12:53 AM 26.2 °F 18.6 °F 16.0 °F 65% 30.21 in 10.0 mi SW 6.9 mph - N/A   Mostly Cloudy
1:14 AM 26.2 °F 18.6 °F 15.6 °F 64% 30.21 in 10.0 mi SW 6.9 mph - N/A   Scattered Clouds
1:33 AM 26.2 °F 19.6 °F 15.1 °F 63% 30.20 in 10.0 mi SW 5.8 mph - N/A   Mostly Cloudy
1:53 AM 26.2 °F 18.6 °F 14.5 °F 61% 30.20 in 10.0 mi SW 6.9 mph - N/A   Overcast
2:14 AM 26.2 °F 18.6 °F 14.2 °F 60% 30.20 in 10.0 mi SW 6.9 mph - N/A   Overcast
2:34 AM 26.6 °F 19.1 °F 14.4 °F 60% 30.20 in 10.0 mi SW 6.9 mph - N/A   Overcast
2:53 AM 27.1 °F 18.9 °F 15.1 °F 60% 30.20 in 10.0 mi SW 8.1 mph - N/A   Overcast
3:14 AM 27.7 °F 20.4 °F 15.6 °F 61% 30.20 in 10.0 mi SW 6.9 mph - N/A   Overcast
3:33 AM 27.7 °F 20.4 °F 15.3 °F 60% 30.20 in 10.0 mi SW 6.9 mph - N/A   Overcast
3:53 AM 27.9 °F 19.8 °F 14.7 °F 58% 30.19 in 10.0 mi SW 8.1 mph - N/A   Overcast
4:14 AM 27.9 °F 19.1 °F 14.5 °F 57% 30.19 in 10.0 mi SW 9.2 mph - N/A   Overcast
4:33 AM 27.9 °F 19.1 °F 14.4 °F 57% 30.19 in 10.0 mi SW 9.2 mph - N/A   Overcast
4:53 AM 27.9 °F 20.6 °F 14.5 °F 57% 30.19 in 10.0 mi SW 6.9 mph - N/A   Overcast
5:14 AM 27.9 °F 20.6 °F 14.9 °F 58% 30.19 in 10.0 mi WSW 6.9 mph - N/A   Overcast
5:33 AM 27.5 °F 19.3 °F 15.1 °F 60% 30.20 in 10.0 mi SW 8.1 mph - N/A   Mostly Cloudy
5:53 AM 25.9 °F 20.3 °F 14.7 °F 63% 30.21 in 10.0 mi WSW 4.6 mph - N/A   Scattered Clouds
6:14 AM 24.3 °F 19.9 °F 14.9 °F 68% 30.22 in 10.0 mi WSW 3.5 mph - N/A   Scattered Clouds
6:33 AM 26.8 °F 20.2 °F 16.0 °F 64% 30.22 in 10.0 mi WSW 5.8 mph - N/A   Overcast
6:54 AM 27.5 °F 21.1 °F 16.2 °F 62% 30.22 in 10.0 mi WSW 5.8 mph - N/A   Overcast
7:13 AM 27.9 °F 21.5 °F 16.9 °F 63% 30.23 in 10.0 mi WSW 5.8 mph - N/A   Overcast
7:33 AM 28.2 °F 21.0 °F 17.4 °F 64% 30.24 in 10.0 mi WSW 6.9 mph - N/A   Overcast
7:53 AM 28.4 °F 23.3 °F 17.8 °F 64% 30.24 in 10.0 mi SW 4.6 mph - N/A   Overcast
8:14 AM 28.8 °F 22.6 °F 18.1 °F 65% 30.25 in 10.0 mi SW 5.8 mph - N/A   Overcast
8:33 AM 28.8 °F 23.7 °F 18.9 °F 67% 30.25 in 10.0 mi SW 4.6 mph - N/A   Overcast
8:53 AM 29.3 °F 23.2 °F 19.6 °F 67% 30.26 in 10.0 mi SW 5.8 mph - N/A   Overcast
9:14 AM 29.8 °F 22.2 °F 20.1 °F 67% 30.26 in 10.0 mi SW 8.1 mph - N/A   Overcast
9:33 AM 30.6 °F 24.7 °F 21.0 °F 68% 30.27 in 10.0 mi SW 5.8 mph - N/A   Overcast
9:53 AM 31.5 °F 24.9 °F 22.5 °F 69% 30.28 in 10.0 mi SW 6.9 mph - N/A   Overcast
10:14 AM 32.7 °F 25.7 °F 23.4 °F 68% 30.29 in 10.0 mi WSW 8.1 mph - N/A   Overcast
10:33 AM 33.6 °F 26.8 °F 23.9 °F 68% 30.29 in 10.0 mi WSW 8.1 mph - N/A   Overcast
10:53 AM 34.2 °F 28.2 °F 24.3 °F 67% 30.29 in 10.0 mi WSW 6.9 mph - N/A   Overcast
11:14 AM 35.1 °F 27.9 °F 24.4 °F 65% 30.29 in 10.0 mi WSW 9.2 mph - N/A   Overcast
11:33 AM 35.8 °F 28.8 °F 25.2 °F 65% 30.29 in 10.0 mi WSW 9.2 mph - N/A   Mostly Cloudy
11:53 AM 37.6 °F 30.5 °F 25.3 °F 61% 30.29 in 10.0 mi West 10.4 mph 16.1 mph N/A   Scattered Clouds
12:14 PM 36.7 °F 29.4 °F 25.0 °F 63% 30.29 in 10.0 mi WSW 10.4 mph - N/A   Overcast
12:33 PM 36.9 °F 31.4 °F 25.0 °F 62% 30.28 in 10.0 mi West 6.9 mph - N/A   Overcast
12:53 PM 37.2 °F 31.2 °F 24.6 °F 60% 30.27 in 10.0 mi West 8.1 mph - N/A   Mostly Cloudy
12:56 PM 37.0 °F 30.4 °F 24.8 °F 61% 30.27 in 10.0 mi West 9.2 mph - N/A   Mostly Cloudy
1:35 PM 37.4 °F 30.8 °F 24.8 °F 60% 30.27 in 10.0 mi West 9.2 mph 13.8 mph N/A   Mostly Cloudy
1:55 PM 39.2 °F 32.5 °F 23.0 °F 52% 30.26 in 10.0 mi WNW 10.4 mph 17.3 mph N/A   Mostly Cloudy
2:15 PM 39.2 °F 33.0 °F 21.2 °F 49% 30.26 in 10.0 mi WNW 9.2 mph - N/A   Overcast
2:35 PM 37.4 °F 30.8 °F 21.2 °F 52% 30.25 in 10.0 mi WNW 9.2 mph - N/A   Scattered Clouds
2:55 PM 39.2 °F 33.6 °F 21.2 °F 49% 30.25 in 10.0 mi West 8.1 mph - N/A   Clear
3:15 PM 39.2 °F 32.0 °F 19.4 °F 45% 30.26 in 10.0 mi West 11.5 mph 18.4 mph N/A   Scattered Clouds
3:35 PM 39.2 °F 32.0 °F 17.6 °F 42% 30.26 in 10.0 mi West 11.5 mph 23.0 mph N/A   Scattered Clouds
3:54 PM 39.6 °F 33.0 °F 17.1 °F 40% 30.27 in 10.0 mi WNW 10.4 mph 18.4 mph N/A   Clear
4:13 PM 38.8 °F 31.6 °F 17.4 °F 42% 30.27 in 10.0 mi West 11.5 mph - N/A   Clear
4:34 PM 37.8 °F 30.2 °F 16.9 °F 43% 30.28 in 10.0 mi West 11.5 mph - N/A   Clear
4:54 PM 35.8 °F 29.4 °F 16.9 °F 46% 30.28 in 10.0 mi West 8.1 mph - N/A   Clear
5:13 PM 34.0 °F 28.8 °F 16.9 °F 50% 30.28 in 10.0 mi West 5.8 mph - N/A   Clear
5:34 PM 31.5 °F 25.8 °F 17.6 °F 57% 30.29 in 10.0 mi WSW 5.8 mph - N/A   Clear
5:53 PM 31.5 °F 25.8 °F 19.6 °F 62% 30.29 in 10.0 mi West 5.8 mph - N/A   Clear
6:13 PM 30.7 °F 24.9 °F 19.8 °F 64% 30.29 in 10.0 mi West 5.8 mph - N/A   Clear
6:34 PM 30.0 °F 24.1 °F 20.7 °F 68% 30.29 in 10.0 mi WSW 5.8 mph - N/A   Clear
6:53 PM 29.1 °F 24.1 °F 21.0 °F 72% 30.29 in 10.0 mi West 4.6 mph - N/A   Clear
7:13 PM 29.5 °F 25.9 °F 21.7 °F 73% 30.30 in 10.0 mi WSW 3.5 mph - N/A   Clear
7:34 PM 29.5 °F - 21.9 °F 73% 30.30 in 10.0 mi Calm Calm - N/A   Clear
7:53 PM 28.2 °F 24.4 °F 21.4 °F 76% 30.30 in 10.0 mi SW 3.5 mph - N/A   Clear
8:13 PM 27.0 °F - 21.0 °F 78% 30.30 in 10.0 mi Calm Calm - N/A   Clear
8:34 PM 27.7 °F - 21.7 °F 78% 30.30 in 10.0 mi Calm Calm - N/A   Clear
8:53 PM 25.9 °F - 21.2 °F 82% 30.29 in 10.0 mi Calm Calm - N/A   Clear
9:13 PM 27.3 °F - 22.3 °F 81% 30.30 in 10.0 mi Calm Calm - N/A   Clear
9:34 PM 26.4 °F - 21.7 °F 82% 30.29 in 10.0 mi Calm Calm - N/A   Clear
9:53 PM 26.8 °F - 22.3 °F 83% 30.29 in 10.0 mi Calm Calm - N/A   Clear
10:13 PM 28.0 °F 24.2 °F 23.0 °F 81% 30.29 in 10.0 mi SSW 3.5 mph - N/A   Clear
10:34 PM 28.8 °F - 23.4 °F 80% 30.28 in 10.0 mi Calm Calm - N/A   Clear
10:53 PM 28.8 °F - 22.8 °F 78% 30.28 in 10.0 mi Calm Calm - N/A   Clear
11:14 PM 28.9 °F 25.2 °F 21.9 °F 75% 30.28 in 10.0 mi SSW 3.5 mph - N/A   Clear
11:34 PM 28.9 °F 25.2 °F 21.6 °F 74% 30.28 in 10.0 mi SSW 3.5 mph - N/A   Clear
11:53 PM 29.1 °F 24.1 °F 21.2 °F 72% 30.28 in 10.0 mi SSW 4.6 mph - N/A   Clear